Dallas Addison, TX

7:50 AM CST on November 22, 2017 (GMT -0600)
Addison

Weather History for KADS - February, 2013

Change the Weather History Date:

Friday, February 8, 2013

  Actual Average Record
Temperature  
Mean Temperature 52 °F -  
Max Temperature 62 °F 56 °F 73 °F (1999)
Min Temperature 42 °F 40 °F 32 °F (2014)
Degree Days  
Heating Degree Days 13    
Growing Degree Days 2 (Base 50)    
Moisture  
Dew Point 33 °F    
Average Humidity 51    
Maximum Humidity 71    
Minimum Humidity 19    
Precipitation  
Precipitation 0.00 in - - ()
Sea Level Pressure  
Sea Level Pressure 30.16 in    
Wind  
Wind Speed 10 mph (NNE)    
Max Wind Speed 15 mph    
Max Gust Speed 22 mph    
Visibility 12 miles    
Events      
Averages and records for this station are not official NWS values.
T = Trace of Precipitation, MM = Missing Value Source: NWS Daily Summary

Daily Weather History Graph

Daily Weather History Graph

Search for Another Location

Airport or City:

Trip Planner

Search our weather history database for the weather conditions in past years. The results will help you decide how hot, cold, wet, or windy it might be!

Date:

Astronomy

Feb. 08, 2013 Rise Set
Actual Time 7:16 AM CST 6:06 PM CST
Civil Twilight 6:51 AM CST 6:32 PM CST
Nautical Twilight 6:22 AM CST 7:01 PM CST
Astronomical Twilight 5:53 AM CST 7:30 PM CST
Moon 5:44 AM CST (2/8) 4:42 PM CST (2/8)
Length of Visible Light 11h 40m
Length of Day
10h 49m
Waning Crescent, 3% of the Moon is Illuminated
Feb 8
Waning Crescent
Feb 10
New
Feb 17
First Quarter
Feb 25
Full
Mar 4
Last Quarter

Hourly Weather History & Observations

Time (CST) Temp. Windchill Dew Point Humidity Pressure Visibility Wind Dir Wind Speed Gust Speed Precip Events Conditions
12:15 AM 51.8 °F - 41.0 °F 67% 30.12 in 10.0 mi NNW 13.8 mph 18.4 mph N/A   Clear
12:35 AM 51.8 °F - 41.0 °F 67% 30.13 in 10.0 mi NNW 12.7 mph 21.9 mph N/A   Clear
12:55 AM 51.8 °F - 41.0 °F 67% 30.13 in 10.0 mi NNW 10.4 mph - N/A   Clear
1:15 AM 50.0 °F - 41.0 °F 71% 30.13 in 10.0 mi NNW 12.7 mph - N/A   Clear
1:35 AM 50.0 °F - 41.0 °F 71% 30.13 in 10.0 mi NNW 11.5 mph 17.3 mph N/A   Clear
1:55 AM 50.0 °F - 41.0 °F 71% 30.14 in 10.0 mi North 11.5 mph 17.3 mph N/A   Clear
2:15 AM 50.0 °F - 39.2 °F 66% 30.14 in 10.0 mi NNW 9.2 mph - N/A   Clear
2:35 AM 48.2 °F - 37.4 °F 66% 30.14 in 10.0 mi North 10.4 mph 17.3 mph N/A   Clear
2:55 AM 48.2 °F - 37.4 °F 66% 30.15 in 10.0 mi North 15.0 mph 20.7 mph N/A   Clear
3:15 AM 46.4 °F 40.4 °F 35.6 °F 66% 30.15 in 10.0 mi North 13.8 mph - N/A   Clear
3:55 AM 46.4 °F 40.4 °F 35.6 °F 66% 30.16 in 10.0 mi North 13.8 mph 18.4 mph N/A   Clear
4:15 AM 46.4 °F 41.5 °F 35.6 °F 66% 30.16 in 10.0 mi North 10.4 mph 18.4 mph N/A   Clear
4:35 AM 46.4 °F 41.5 °F 35.6 °F 66% 30.17 in 10.0 mi North 10.4 mph - N/A   Clear
4:55 AM 44.6 °F 39.7 °F 35.6 °F 71% 30.18 in 10.0 mi North 9.2 mph - N/A   Clear
5:47 AM 44.6 °F 39.7 °F 35.6 °F 71% 30.20 in 13.0 mi North 9.2 mph - N/A   Clear
6:47 AM 42.8 °F 36.6 °F 33.8 °F 70% 30.22 in 15.0 mi North 11.5 mph - N/A   Clear
7:47 AM 42.8 °F 37.0 °F 33.8 °F 70% 30.25 in 13.0 mi NNW 10.4 mph - N/A   Clear
8:47 AM 44.6 °F 38.1 °F 33.8 °F 66% 30.25 in 13.0 mi North 13.8 mph 18.4 mph N/A   Clear
10:55 AM 55.4 °F - 28.4 °F 36% 30.26 in 13.0 mi NNE 11.5 mph - N/A   Clear
11:50 AM 59.0 °F - 24.8 °F 27% 30.25 in 13.0 mi ENE 8.1 mph - N/A   Scattered Clouds
12:47 PM 60.8 °F - 23.0 °F 23% 30.22 in 13.0 mi NE 8.1 mph - N/A   Partly Cloudy
1:47 PM 60.8 °F - 21.2 °F 22% 30.19 in 13.0 mi ENE 12.7 mph - N/A   Partly Cloudy
2:48 PM 62.6 °F - 21.2 °F 20% 30.17 in 13.0 mi East 9.2 mph - N/A   Partly Cloudy
3:47 PM 62.6 °F - 19.4 °F 19% 30.16 in 13.0 mi ENE 8.1 mph - N/A   Partly Cloudy
4:47 PM 62.6 °F - 23.0 °F 22% 30.15 in 13.0 mi ENE 5.8 mph - N/A   Partly Cloudy
6:47 PM 57.2 °F - 26.6 °F 31% 30.14 in 20.0 mi ENE 5.8 mph - N/A   Mostly Cloudy
7:47 PM 55.4 °F - 28.4 °F 36% 30.15 in 20.0 mi East 3.5 mph - N/A   Overcast
8:49 PM 53.6 °F - 28.4 °F 38% 30.15 in 20.0 mi ENE 4.6 mph - N/A   Overcast
9:15 PM 53.6 °F - 32.0 °F 44% 30.14 in 10.0 mi East 4.6 mph - N/A   Clear
9:35 PM 53.6 °F - 32.0 °F 44% 30.14 in 10.0 mi East 4.6 mph - N/A   Clear
9:47 PM 53.6 °F - 32.0 °F 44% 30.15 in 10.0 mi ENE 5.8 mph - N/A   Mostly Cloudy
9:55 PM 53.6 °F - 32.0 °F 44% 30.15 in 10.0 mi Calm Calm - N/A   Clear
10:15 PM 51.8 °F - 32.0 °F 47% 30.16 in 10.0 mi East 4.6 mph - N/A   Clear
10:35 PM 51.8 °F - 32.0 °F 47% 30.14 in 10.0 mi East 5.8 mph - N/A   Clear
10:55 PM 51.8 °F - 32.0 °F 47% 30.14 in 10.0 mi ESE 4.6 mph - N/A   Clear
11:15 PM 51.8 °F - 32.0 °F 47% 30.13 in 10.0 mi ESE 6.9 mph - N/A   Clear
11:35 PM 51.8 °F - 32.0 °F 47% 30.14 in 10.0 mi East 5.8 mph - N/A   Clear
11:55 PM 51.8 °F - 32.0 °F 47% 30.14 in 10.0 mi ESE 8.1 mph - N/A   Clear